Weather History for KAMA - November, 2013

Change the Weather History Date:

Monday, November 25, 2013

  Actual Average Record
Temperature  
Mean Temperature 28 °F 42 °F  
Max Temperature 31 °F 55 °F 81 °F (1970)
Min Temperature 24 °F 28 °F 8 °F (1993)
Degree Days  
Heating Degree Days 37 23  
Month to date heating degree days 479 442  
Since 1 July heating degree days 723 722  
Cooling Degree Days 0 0  
Month to date cooling degree days 0 0  
Year to date cooling degree days 1806 1398  
Moisture  
Dew Point 24 °F    
Average Humidity 82    
Maximum Humidity 92    
Minimum Humidity 72    
Precipitation  
Precipitation 0.00 in 0.03 in 0.91 in (1935)
Month to date precipitation 0.52 0.71  
Year to date precipitation 14.89 19.56  
Snow  
Snow 0.00 in 0.20 in 8.60 in (1918)
Month to date snowfall 4.3 2.0  
Since 1 July snowfall 4.3 2.2  
Since 1 September snowfall 4.3 2.2  
Snow Depth 2.00 in    
Sea Level Pressure  
Sea Level Pressure 30.15 in    
Wind  
Wind Speed 15 mph (NW)    
Max Wind Speed 25 mph    
Max Gust Speed 30 mph    
Visibility 8 miles    
Events      
T = Trace of Precipitation, MM = Missing Value Source: NWS Daily Summary

Daily Weather History Graph

Daily Weather History Graph

Search for Another Location

Airport or City:

Trip Planner

Search our weather history database for the weather conditions in past years. The results will help you decide how hot, cold, wet, or windy it might be!

Date:

Astronomy

Nov. 25, 2013 Rise Set
Actual Time 7:31 AM CST 5:35 PM CST
Civil Twilight 7:04 AM CST 6:03 PM CST
Nautical Twilight 6:33 AM CST 6:34 PM CST
Astronomical Twilight 6:02 AM CST 7:05 PM CST
Moon No Moon Rise 12:58 PM CST (11/25)
Length of Visible Light 10h 59m
Length of Day
10h 04m
Waning Gibbous, 51% of the Moon is Illuminated
Nov 25
Waning Gibbous
Nov 25
Last Quarter
Dec 2
New
Dec 9
First Quarter
Dec 17
Full

Hourly Weather History & Observations

Time (CST) Temp. Windchill Dew Point Humidity Pressure Visibility Wind Dir Wind Speed Gust Speed Precip Events Conditions
12:53 AM 28.0 °F 14.6 °F 24.1 °F 85% 30.14 in 10.0 mi SSW 20.7 mph - N/A   Overcast
1:53 AM 27.0 °F 13.2 °F 24.1 °F 89% 30.11 in 10.0 mi SSW 20.7 mph 28.8 mph N/A   Overcast
2:53 AM 27.0 °F 12.8 °F 24.1 °F 89% 30.09 in 10.0 mi SSW 21.9 mph 28.8 mph N/A   Overcast
3:53 AM 27.0 °F 13.5 °F 24.1 °F 89% 30.07 in 10.0 mi SSW 19.6 mph - N/A   Overcast
4:53 AM 27.0 °F 15.2 °F 24.1 °F 89% 30.07 in 10.0 mi SSW 15.0 mph - N/A   Overcast
5:53 AM 27.0 °F 14.3 °F 24.1 °F 89% 30.07 in 10.0 mi SSW 17.3 mph - N/A   Overcast
6:53 AM 27.0 °F 14.7 °F 24.1 °F 89% 30.07 in 10.0 mi SSW 16.1 mph - N/A   Overcast
7:53 AM 28.0 °F 18.1 °F 25.0 °F 88% 30.07 in 10.0 mi SSW 11.5 mph - N/A   Overcast
8:53 AM 28.9 °F 21.1 °F 25.0 °F 85% 30.08 in 10.0 mi South 8.1 mph - N/A   Overcast
9:31 AM 30.2 °F 21.9 °F 26.6 °F 86% 30.04 in 10.0 mi SSW 9.2 mph - N/A   Overcast
9:53 AM 30.0 °F 22.4 °F 26.1 °F 85% 30.09 in 10.0 mi SSW 8.1 mph - N/A   Overcast
10:49 AM 30.2 °F 21.9 °F 23.0 °F 75% 30.05 in 10.0 mi NW 9.2 mph - N/A   Overcast
10:53 AM 30.0 °F 21.7 °F 23.0 °F 75% 30.10 in 10.0 mi WNW 9.2 mph - N/A   Overcast
11:53 AM 28.9 °F 19.8 °F 24.1 °F 82% 30.10 in 10.0 mi NW 10.4 mph - N/A   Overcast
12:53 PM 30.9 °F 21.2 °F 24.1 °F 76% 30.09 in 10.0 mi NNW 12.7 mph - N/A   Overcast
1:53 PM 28.9 °F 17.7 °F 23.0 °F 78% 30.12 in 10.0 mi North 15.0 mph - N/A   Overcast
2:12 PM 28.4 °F 16.6 °F 23.0 °F 80% 30.06 in 10.0 mi North 16.1 mph - N/A   Overcast
2:53 PM 28.0 °F 17.5 °F 23.0 °F 81% 30.12 in 10.0 mi North 12.7 mph - N/A   Overcast
3:53 PM 28.0 °F 16.1 °F 23.0 °F 81% 30.16 in 8.0 mi North 16.1 mph - N/A   Overcast
4:24 PM 26.6 °F 12.7 °F 24.8 °F 93% 30.12 in 4.0 mi North 20.7 mph - N/A   Overcast
4:38 PM 26.6 °F 13.4 °F 24.8 °F 93% 30.13 in 2.0 mi North 18.4 mph 25.3 mph N/A   Overcast
4:53 PM 26.1 °F 13.1 °F 24.1 °F 92% 30.20 in 2.0 mi North 17.3 mph - N/A   Overcast
5:01 PM 26.6 °F 13.4 °F 24.8 °F 93% 30.14 in 1.8 mi North 18.4 mph - N/A   Overcast
5:10 PM 26.6 °F 14.3 °F 24.8 °F 93% 30.14 in 1.8 mi North 16.1 mph - N/A   Overcast
5:38 PM 28.4 °F 16.2 °F 26.6 °F 93% 30.15 in 2.0 mi North 17.3 mph - N/A   Overcast
5:49 PM 28.4 °F 16.2 °F 26.6 °F 93% 30.16 in 4.0 mi North 17.3 mph - N/A   Overcast
5:53 PM 28.0 °F 16.5 °F 26.1 °F 92% 30.22 in 5.0 mi North 15.0 mph - N/A   Overcast
6:32 PM 28.4 °F 16.2 °F 26.6 °F 93% 30.18 in 4.0 mi North 17.3 mph - N/A   Overcast
6:53 PM 28.0 °F 15.3 °F 26.1 °F 92% 30.25 in 4.0 mi North 18.4 mph - N/A   Overcast
7:53 PM 28.0 °F 17.0 °F 25.0 °F 88% 30.27 in 7.0 mi North 13.8 mph - N/A   Overcast
8:53 PM 27.0 °F 14.7 °F 25.0 °F 92% 30.28 in 9.0 mi North 16.1 mph - N/A   Overcast
9:53 PM 28.0 °F 16.5 °F 25.0 °F 88% 30.29 in 9.0 mi North 15.0 mph - N/A   Overcast
10:53 PM 26.1 °F 15.6 °F 23.0 °F 88% 30.30 in 7.0 mi NNW 11.5 mph - N/A   Mostly Cloudy
11:14 PM 24.8 °F 15.3 °F 23.0 °F 93% 30.24 in 6.0 mi NNW 9.2 mph - N/A   Scattered Clouds
11:53 PM 24.1 °F 14.4 °F 21.9 °F 91% 30.30 in 6.0 mi NW 9.2 mph - N/A   Clear